Location: Kuppenheim
(48.8299°N, 8.2568°E)
Time: 08:15:51
(UTC+00:00)

N. Korean satellite - Pass Details

Date: 02 December 2022
Orbit: 407 x 442 km, 97.3° (Epoch: 04 February)

Event Time Altitude Azimuth Distance (km) Brightness Sun altitude
Rises 04:47:31 0° 14° (NNE) 2,527 10.3 -21.0°
Reaches altitude 10° 04:49:35 10° 16° (NNE) 1,642 9.3 -20.6°
Maximum altitude 04:53:07 76° 102° (ESE) 488 6.6 -20.1°
Drops below altitude 10° 04:56:35 10° 189° (S) 1,609 9.2 -19.5°
Sets 04:58:36 0° 191° (S) 2,470 10.2 -19.2°
